User: anonymous   Login
Location: Unspecified
(0.0000°N, 0.0000°E)
Time: 23:02:53
(UTC+01:00)
Language:

Iridium 4 Rocket - Orbit

View from above orbital plane
View from above orbital plane
View from above satellite
View from above satellite

Ground track
Ground track

The orbit data is extracted from the following two-line orbital elements,

1 24797U 97020F   17080.96419016 +.00000102 +00000-0 +17273-4 0  9996
2 24797 086.8993 025.3065 0223356 247.9837 181.6141 14.43959678045328
Epoch (UTC): 21 March 2017 23:08:26
Eccentricity: 0.0223356
inclination: 86.8993°
perigee height: 586 km
apogee height: 904 km
right ascension of ascending node: 25.3065°
argument of perigee: 247.9837°
revolutions per day: 14.43959678
mean anomaly at epoch: 181.6141°
orbit number at epoch: 4532

The dashed part of the orbit path shows where the satellite is in the earth's shadow,  

DLR